Location: Brunembert
(50.7122°N, 1.8935°E)
Time: 04:08:32
(UTC+00:00)

SL-4 R/B - Pass Details

Date: 22 April 2021
Orbit: 427 x 663 km, 51.6° (Epoch: 06 May)

Event Time Altitude Azimuth Distance (km) Brightness Sun altitude
Rises 21:23:36 0° 244° (WSW) 2,804 5.8 -19.1°
Reaches altitude 10° 21:25:48 10° 243° (WSW) 1,941 4.9 -19.3°
Maximum altitude 21:30:16 72° 160° (SSE) 664 2.1 -19.8°
Enters shadow 21:33:34 19° 78° (ENE) 1,518 4.0 -20.1°
